Terminal Aerodrome Forecast
Issued by NWS Boston, MA

Home | Current Version | Previous Version | Text Only | Print | Product List | Glossary Off
Versions: 1 2 3 4 5 6 7 8 9 10 11 12 13 14 15 16 17 18 19 20 21 22 23 24 25 26 27 28 29 30 31 32 33 34 35 36 37 38 39 40 41 42 43 44 45 46 47 48 49 50
000 FTUS41 KBOX 120540 TAFPVD TAF KPVD 120540Z 1206/1306 11004KT P6SM BKN040 OVC110 FM121300 12007KT P6SM VCSH OVC025 FM121900 16011G22KT 2SM BR VCSH OVC020 FM122200 21009KT P6SM OVC020 FM130400 26007KT P6SM BKN035=

USA.gov is the U.S. government's official web portal to all federal, state and local government web resources and services.